Find Starlink 31041

NORAD ID: 58537 Int'l Des: 2023-192 Owner: SPXS Country: US Constellation: starlink operational
LEOCIRCULAR

Current View

Loading 3D Globe...

About Starlink 31041

Starlink 31041 (NORAD 58537) is a starlink constellation satellite (v2 mini) launched Dec 8, 2023 by SPXS of US. It operates in LEO, CIRCULAR orbit with a mass of 730.00 kg.

About Starlink 31041

Description loading...

Upcoming Passes

Passes for default location (London). Set your location on the main map for personalized predictions.

Altitude History

Loading altitude history...

Two-Line Element Set

1 58537U 23192G 26170.66330190 -.00000074 00000-0 89453-5 0 9995
2 58537 53.1606 307.9787 0001042 90.9008 269.2114 15.34392458141617
Epoch: Jun 19, 2026 • Age: 27 hours

Current Status

Altitude 465.4 km
Velocity 7.63 km/s
Sub-Earth Point -9.06°S, 110.32°E
Launch Date Dec 8, 2023
Age 2.5 years
Type internet

Technical Details

Classification Payload
Mass 730.00 kg
Dry Mass 700.00 kg
Total Mass 730.00 kg
Length 0.30 m
Diameter 4.10 m
Span 29.00 m
Shape Box + pan
Manufacturer SPXS
Bus Type Starlink V2M
Phase Status In Orbit
Owner/State SPXS/US

Most Searched